Regional Weather Roundup
Issued by NWS Portland, ME

Home | Current Version | Previous Version | Text Only | Print | Product List | Glossary On
Versions: 1 2 3 4 5 6 7 8 9 10 11 12 13 14 15 16 17 18 19 20 21 22 23 24 25 26 27 28 29 30 31 32 33 34 35 36 37 38 39 40 41 42 43 44 45 46 47 48 49 50
000
ASUS41 KGYX 290910
RWRGYX
WEATHER ROUNDUP FOR MAINE AND NEW HAMPSHIRE
NATIONAL WEATHER SERVICE GRAY ME
500 AM EDT FRI MAY 29 2015

MEZ002-005-006-010-012-015-018-020-021-024-026-027-029-291000-
MAINE

CITY           SKY/WX    TMP DP  RH WIND       PRES   REMARKS
PORTLAND       MOCLDY    64  59  83 N7        30.23R
SANFORD        CLEAR     61  52  72 NW3       30.25R
BAR HARBOR     CLOUDY    61  61 100 N6        30.21S
WISCASSET      CLEAR     61  59  93 NW3       30.24R
ROCKLAND       CLEAR     61  57  88 N7        30.20R
FRYEBURG       CLOUDY    53  52  96 CALM      30.26R
LEWISTONAUBURN PTCLDY    61  55  82 N3        30.24R
AUGUSTA        CLOUDY    62  58  86 NW7       30.25R
WATERVILLE     CLEAR     61  55  82 NW7       30.22R
BANGOR         PTCLDY    59  57  93 N6        30.23R
GREENVILLE       N/A     54  51  90 NW8       30.26R
MILLINOCKET    CLOUDY    60  51  72 NW8       30.27R
HOULTON        CLOUDY    55  53  93 N6        30.23R
PRESQUE ISLE   CLEAR     52  46  82 N3        30.27R
FRENCHVILLE    CLEAR     44  41  89 N7        30.27R
CARIBOU        CLEAR     50  48  93 NW7       30.27R
$$

NHZ002-005-008-009-011-012-014-291000-
NEW HAMPSHIRE

CITY           SKY/WX    TMP DP  RH WIND       PRES   REMARKS
PORTSMOUTH     PTCLDY    59  55  87 NW3       30.23R
ROCHESTER      CLEAR     59  55  87 NW3       30.24R
NASHUA         CLEAR     56  55  96 NW7       30.26R
MANCHESTER     CLEAR     62  55  77 NW3       30.24R
CONCORD        CLEAR     55  53  93 CALM      30.26R
LACONIA        MOCLDY    57  54  88 CALM      30.25R
PLYMOUTH       FAIR      58  58 100 NW3       30.27S
BERLIN         CLOUDY    58  54  86 S3        30.30R
WHITEFIELD     PTCLDY    57  54  89 CALM      30.29S
JAFFREY        FAIR      53  51  93 S3        30.28R
KEENE          FAIR      52  50  93 CALM      30.29R
LEBANON        CLEAR     53  51  93 CALM      30.28S
MT WASHINGTON  MOCLDY    45  37  76 N12         N/A
$$

VTZ005-007-008-291000-
VERMONT

CITY           SKY/WX    TMP DP  RH WIND       PRES   REMARKS
MONTPELIER     MOCLDY    53  52  96 CALM      30.33S
BURLINGTON     MOCLDY    56  53  90 S5        30.28S
$$

MAZ007-012-024-CTZ003-RIZ002-NYZ038-NYZ072-291000-
SOUTHERN NEW ENGLAND AND NY

CITY           SKY/WX    TMP DP  RH WIND       PRES   REMARKS
BOSTON         CLEAR     64  55  72 NW8       30.24R
WORCESTER      CLEAR     61  53  75 N7        30.27R
NANTUCKET      CLOUDY    60  57  89 SW5       30.24S
PROVIDENCE     CLEAR     60  55  83 W3        30.26R
HARTFORD       PTCLDY    58  53  84 CALM      30.26R
ALBANY         PTCLDY    56  52  86 E5        30.29R
NEW YORK CITY  CLEAR     65  53  65 NE6       30.25S
$$

ANZ081-ANZ082-ANZ150-NHZ014-MEZ023>029-291000-
COASTAL MARINE OBSERVATIONS

STATION/POSITION TIME  TEMP    WIND        PRES    WAVE
                       AIR SEA DIR/SP/G            HT/PER
                 (UTC) (F)     (DEG/KT/KT) (MB)    (FT/S)
MOUNT DESERT ROC 0900   54     330/ 19/ 19   N/A
MATINICUS ROCK   0900   58      10/ 15/ 16   N/A
ISLE OF SHOALS   0900   62     320/ 11/ 11   N/A
JEFFREYS LEDGE   0803      50                N/A     2/ 8
CASHES LEDGE BUO 0850   54 51                N/A     3/ 6
GEORGES BANK BUO 0850   57 51  210/  8/ 10   N/A     3/ 6
$$

.............KEY..............
   WCI - WIND CHILL
   TC  - TEMPERATURE IN CELSIUS
   VSB - VISIBILITY IN MILES
   HX  - HEAT INDEX
   FAIR- INDICATES FEW OR NO CLOUDS BELOW 12,000 FT, WITH NO
         SIGNIFICANT WEATHER AND/OR OBSTRUCTIONS TO VISIBILITY.





USA.gov is the U.S. government's official web portal to all federal, state and local government web resources and services.